#datetime,building,power
2022-04-19T00:00:00,sdl,9.54
2022-04-19T00:01:00,sdl,9.44
2022-04-19T00:02:00,sdl,9.45
2022-04-19T00:03:00,sdl,9.47
2022-04-19T00:04:00,sdl,9.40
2022-04-19T00:05:00,sdl,9.47
2022-04-19T00:06:00,sdl,9.45
2022-04-19T00:07:00,sdl,9.55
2022-04-19T00:08:00,sdl,9.54
2022-04-19T00:09:00,sdl,9.61
2022-04-19T00:10:00,sdl,9.60
2022-04-19T00:11:00,sdl,9.62
2022-04-19T00:12:00,sdl,9.62
2022-04-19T00:13:00,sdl,9.49
2022-04-19T00:14:00,sdl,10.61
2022-04-19T00:15:00,sdl,9.55
2022-04-19T00:16:00,sdl,9.53
2022-04-19T00:17:00,sdl,9.50
2022-04-19T00:18:00,sdl,9.45
2022-04-19T00:19:00,sdl,9.58
2022-04-19T00:20:00,sdl,9.55
2022-04-19T00:21:00,sdl,11.88
2022-04-19T00:22:00,sdl,12.05
2022-04-19T00:23:00,sdl,12.39
2022-04-19T00:24:00,sdl,12.40
2022-04-19T00:25:00,sdl,12.25
2022-04-19T00:26:00,sdl,12.27
2022-04-19T00:27:00,sdl,12.28
2022-04-19T00:28:00,sdl,12.30
2022-04-19T00:29:00,sdl,12.32
2022-04-19T00:30:00,sdl,12.18
2022-04-19T00:31:00,sdl,12.31
2022-04-19T00:32:00,sdl,12.29
2022-04-19T00:33:00,sdl,12.29
2022-04-19T00:34:00,sdl,12.28
2022-04-19T00:35:00,sdl,12.22
2022-04-19T00:36:00,sdl,12.21
2022-04-19T00:37:00,sdl,9.86
2022-04-19T00:38:00,sdl,9.83
2022-04-19T00:39:00,sdl,9.86
2022-04-19T00:40:00,sdl,9.81
2022-04-19T00:41:00,sdl,9.79
2022-04-19T00:42:00,sdl,9.79
2022-04-19T00:43:00,sdl,9.88
2022-04-19T00:44:00,sdl,9.90
2022-04-19T00:45:00,sdl,9.92
2022-04-19T00:46:00,sdl,9.96
2022-04-19T00:47:00,sdl,9.95
2022-04-19T00:48:00,sdl,10.77
2022-04-19T00:49:00,sdl,9.99
2022-04-19T00:50:00,sdl,9.95
2022-04-19T00:51:00,sdl,9.92
2022-04-19T00:52:00,sdl,9.93
2022-04-19T00:53:00,sdl,12.53
2022-04-19T00:54:00,sdl,12.53
2022-04-19T00:55:00,sdl,12.22
2022-04-19T00:56:00,sdl,12.21
2022-04-19T00:57:00,sdl,12.42
2022-04-19T00:58:00,sdl,12.53
2022-04-19T00:59:00,sdl,12.51
2022-04-19T01:00:00,sdl,12.62
2022-04-19T01:01:00,sdl,12.38
2022-04-19T01:02:00,sdl,12.52
2022-04-19T01:03:00,sdl,12.99
2022-04-19T01:04:00,sdl,9.81
2022-04-19T01:05:00,sdl,9.68
2022-04-19T01:06:00,sdl,9.62
2022-04-19T01:07:00,sdl,9.65
2022-04-19T01:08:00,sdl,9.68
2022-04-19T01:09:00,sdl,9.70
2022-04-19T01:10:00,sdl,10.75
2022-04-19T01:11:00,sdl,9.80
2022-04-19T01:12:00,sdl,9.79
2022-04-19T01:13:00,sdl,9.72
2022-04-19T01:14:00,sdl,9.71
2022-04-19T01:15:00,sdl,9.68
2022-04-19T01:16:00,sdl,9.75
2022-04-19T01:17:00,sdl,9.70
2022-04-19T01:18:00,sdl,10.18
2022-04-19T01:19:00,sdl,10.11
2022-04-19T01:20:00,sdl,10.18
2022-04-19T01:21:00,sdl,10.13
2022-04-19T01:22:00,sdl,10.14
2022-04-19T01:23:00,sdl,10.12
2022-04-19T01:24:00,sdl,10.55
2022-04-19T01:25:00,sdl,10.49
2022-04-19T01:26:00,sdl,10.10
2022-04-19T01:27:00,sdl,10.04
2022-04-19T01:28:00,sdl,10.99
2022-04-19T01:29:00,sdl,9.90
2022-04-19T01:30:00,sdl,9.88
2022-04-19T01:31:00,sdl,9.95
2022-04-19T01:32:00,sdl,9.88
2022-04-19T01:33:00,sdl,10.03
2022-04-19T01:34:00,sdl,9.99
2022-04-19T01:35:00,sdl,9.95
2022-04-19T01:36:00,sdl,12.30
2022-04-19T01:37:00,sdl,12.24
2022-04-19T01:38:00,sdl,12.18
2022-04-19T01:39:00,sdl,12.15
2022-04-19T01:40:00,sdl,11.95
2022-04-19T01:41:00,sdl,11.97
2022-04-19T01:42:00,sdl,12.01
2022-04-19T01:43:00,sdl,11.98
2022-04-19T01:44:00,sdl,12.88
2022-04-19T01:45:00,sdl,12.08
2022-04-19T01:46:00,sdl,11.97
2022-04-19T01:47:00,sdl,12.03
2022-04-19T01:48:00,sdl,12.06
2022-04-19T01:49:00,sdl,12.04
2022-04-19T01:50:00,sdl,12.00
2022-04-19T01:51:00,sdl,11.84
2022-04-19T01:52:00,sdl,9.72
2022-04-19T01:53:00,sdl,9.53
2022-04-19T01:54:00,sdl,9.05
2022-04-19T01:55:00,sdl,9.58
2022-04-19T01:56:00,sdl,9.57
2022-04-19T01:57:00,sdl,9.56
2022-04-19T01:58:00,sdl,9.59
2022-04-19T01:59:00,sdl,9.21
2022-04-19T02:00:00,sdl,9.23
2022-04-19T02:01:00,sdl,13.59
2022-04-19T02:02:00,sdl,13.44
2022-04-19T02:03:00,sdl,13.54
2022-04-19T02:04:00,sdl,13.48
2022-04-19T02:05:00,sdl,15.04
2022-04-19T02:06:00,sdl,13.45
2022-04-19T02:07:00,sdl,13.43
2022-04-19T02:08:00,sdl,13.59
2022-04-19T02:09:00,sdl,13.61
2022-04-19T02:10:00,sdl,13.61
2022-04-19T02:11:00,sdl,13.52
2022-04-19T02:12:00,sdl,13.53
2022-04-19T02:13:00,sdl,13.57
2022-04-19T02:14:00,sdl,13.51
2022-04-19T02:15:00,sdl,13.49
2022-04-19T02:16:00,sdl,13.33
2022-04-19T02:17:00,sdl,13.39
2022-04-19T02:18:00,sdl,13.38
2022-04-19T02:19:00,sdl,13.40
2022-04-19T02:20:00,sdl,13.51
2022-04-19T02:21:00,sdl,13.47
2022-04-19T02:22:00,sdl,13.56
2022-04-19T02:23:00,sdl,13.54
2022-04-19T02:24:00,sdl,13.57
2022-04-19T02:25:00,sdl,13.54
2022-04-19T02:26:00,sdl,13.93
2022-04-19T02:27:00,sdl,13.89
2022-04-19T02:28:00,sdl,14.61
2022-04-19T02:29:00,sdl,13.43
2022-04-19T02:30:00,sdl,13.46
2022-04-19T02:31:00,sdl,14.19
2022-04-19T02:32:00,sdl,14.45
2022-04-19T02:33:00,sdl,14.55
2022-04-19T02:34:00,sdl,14.47
2022-04-19T02:35:00,sdl,14.47
2022-04-19T02:36:00,sdl,16.84
2022-04-19T02:37:00,sdl,16.84
2022-04-19T02:38:00,sdl,16.89
2022-04-19T02:39:00,sdl,16.95
2022-04-19T02:40:00,sdl,16.00
2022-04-19T02:41:00,sdl,16.01
2022-04-19T02:42:00,sdl,15.99
2022-04-19T02:43:00,sdl,16.60
2022-04-19T02:44:00,sdl,16.46
2022-04-19T02:45:00,sdl,16.53
2022-04-19T02:46:00,sdl,17.58
2022-04-19T02:47:00,sdl,15.20
2022-04-19T02:48:00,sdl,14.56
2022-04-19T02:49:00,sdl,14.29
2022-04-19T02:50:00,sdl,14.24
2022-04-19T02:51:00,sdl,14.21
2022-04-19T02:52:00,sdl,14.31
2022-04-19T02:53:00,sdl,14.29
2022-04-19T02:54:00,sdl,14.09
2022-04-19T02:55:00,sdl,14.10
2022-04-19T02:56:00,sdl,14.16
2022-04-19T02:57:00,sdl,14.13
2022-04-19T02:58:00,sdl,15.06
2022-04-19T02:59:00,sdl,14.52
2022-04-19T03:00:00,sdl,14.18
2022-04-19T03:01:00,sdl,16.36
2022-04-19T03:02:00,sdl,16.24
2022-04-19T03:03:00,sdl,16.30
2022-04-19T03:04:00,sdl,16.25
2022-04-19T03:05:00,sdl,16.23
2022-04-19T03:06:00,sdl,16.07
2022-04-19T03:07:00,sdl,17.14
2022-04-19T03:08:00,sdl,16.08
2022-04-19T03:09:00,sdl,16.11
2022-04-19T03:10:00,sdl,16.24
2022-04-19T03:11:00,sdl,16.20
2022-04-19T03:12:00,sdl,16.16
2022-04-19T03:13:00,sdl,16.24
2022-04-19T03:14:00,sdl,13.88
2022-04-19T03:15:00,sdl,13.88
2022-04-19T03:16:00,sdl,13.90
2022-04-19T03:17:00,sdl,13.89
2022-04-19T03:18:00,sdl,13.94
2022-04-19T03:19:00,sdl,14.04
2022-04-19T03:20:00,sdl,14.05
2022-04-19T03:21:00,sdl,14.09
2022-04-19T03:22:00,sdl,14.08
2022-04-19T03:23:00,sdl,14.08
2022-04-19T03:24:00,sdl,13.98
2022-04-19T03:25:00,sdl,14.02
2022-04-19T03:26:00,sdl,14.46
2022-04-19T03:27:00,sdl,13.83
2022-04-19T03:28:00,sdl,13.51
2022-04-19T03:29:00,sdl,14.55
2022-04-19T03:30:00,sdl,13.50
2022-04-19T03:31:00,sdl,13.49
2022-04-19T03:32:00,sdl,13.47
2022-04-19T03:33:00,sdl,13.52
2022-04-19T03:34:00,sdl,13.64
2022-04-19T03:35:00,sdl,13.61
2022-04-19T03:36:00,sdl,13.63
2022-04-19T03:37:00,sdl,13.55
2022-04-19T03:38:00,sdl,13.59
2022-04-19T03:39:00,sdl,13.50
2022-04-19T03:40:00,sdl,14.00
2022-04-19T03:41:00,sdl,13.54
2022-04-19T03:42:00,sdl,13.58
2022-04-19T03:43:00,sdl,13.56
2022-04-19T03:44:00,sdl,13.52
2022-04-19T03:45:00,sdl,13.88
2022-04-19T03:46:00,sdl,13.55
2022-04-19T03:47:00,sdl,13.50
2022-04-19T03:48:00,sdl,13.47
2022-04-19T03:49:00,sdl,13.44
2022-04-19T03:50:00,sdl,13.47
2022-04-19T03:51:00,sdl,15.65
2022-04-19T03:52:00,sdl,15.62
2022-04-19T03:53:00,sdl,17.00
2022-04-19T03:54:00,sdl,16.32
2022-04-19T03:55:00,sdl,16.18
2022-04-19T03:56:00,sdl,16.29
2022-04-19T03:57:00,sdl,15.90
2022-04-19T03:58:00,sdl,15.96
2022-04-19T03:59:00,sdl,15.95
2022-04-19T04:00:00,sdl,15.92
2022-04-19T04:01:00,sdl,16.01
2022-04-19T04:02:00,sdl,15.91
2022-04-19T04:03:00,sdl,16.04
2022-04-19T04:04:00,sdl,15.77
2022-04-19T04:05:00,sdl,16.00
2022-04-19T04:06:00,sdl,15.90
2022-04-19T04:07:00,sdl,13.63
2022-04-19T04:08:00,sdl,13.65
2022-04-19T04:09:00,sdl,13.65
2022-04-19T04:10:00,sdl,13.62
2022-04-19T04:11:00,sdl,13.63
2022-04-19T04:12:00,sdl,13.68
2022-04-19T04:13:00,sdl,13.63
2022-04-19T04:14:00,sdl,14.13
2022-04-19T04:15:00,sdl,14.31
2022-04-19T04:16:00,sdl,14.22
2022-04-19T04:17:00,sdl,14.24
2022-04-19T04:18:00,sdl,14.28
2022-04-19T04:19:00,sdl,14.27
2022-04-19T04:20:00,sdl,14.35
2022-04-19T04:21:00,sdl,14.32
2022-04-19T04:22:00,sdl,14.30
2022-04-19T04:23:00,sdl,14.27
2022-04-19T04:24:00,sdl,14.68
2022-04-19T04:25:00,sdl,14.46
2022-04-19T04:26:00,sdl,14.25
2022-04-19T04:27:00,sdl,14.17
2022-04-19T04:28:00,sdl,14.14
2022-04-19T04:29:00,sdl,14.16
2022-04-19T04:30:00,sdl,14.23
2022-04-19T04:31:00,sdl,14.35
2022-04-19T04:32:00,sdl,14.28
2022-04-19T04:33:00,sdl,14.25
2022-04-19T04:34:00,sdl,14.30
2022-04-19T04:35:00,sdl,14.30
2022-04-19T04:36:00,sdl,14.30
2022-04-19T04:37:00,sdl,14.29
2022-04-19T04:38:00,sdl,14.26
2022-04-19T04:39:00,sdl,14.19
2022-04-19T04:40:00,sdl,16.35
2022-04-19T04:41:00,sdl,16.18
2022-04-19T04:42:00,sdl,16.53
2022-04-19T04:43:00,sdl,16.53
2022-04-19T04:44:00,sdl,16.54
2022-04-19T04:45:00,sdl,16.53
2022-04-19T04:46:00,sdl,16.55
2022-04-19T04:47:00,sdl,16.55
2022-04-19T04:48:00,sdl,14.31
2022-04-19T04:49:00,sdl,14.35
2022-04-19T04:50:00,sdl,14.70
2022-04-19T04:51:00,sdl,14.38
2022-04-19T04:52:00,sdl,13.91
2022-04-19T04:53:00,sdl,13.93
2022-04-19T04:54:00,sdl,13.91
2022-04-19T04:55:00,sdl,13.51
2022-04-19T04:56:00,sdl,13.47
2022-04-19T04:57:00,sdl,13.51
2022-04-19T04:58:00,sdl,13.56
2022-04-19T04:59:00,sdl,13.53
2022-04-19T05:00:00,sdl,13.61
2022-04-19T05:01:00,sdl,13.48
2022-04-19T05:02:00,sdl,13.43
2022-04-19T05:03:00,sdl,13.44
2022-04-19T05:04:00,sdl,15.63
2022-04-19T05:05:00,sdl,15.64
2022-04-19T05:06:00,sdl,15.78
2022-04-19T05:07:00,sdl,16.09
2022-04-19T05:08:00,sdl,16.03
2022-04-19T05:09:00,sdl,16.00
2022-04-19T05:10:00,sdl,16.13
2022-04-19T05:11:00,sdl,15.97
2022-04-19T05:12:00,sdl,16.10
2022-04-19T05:13:00,sdl,16.02
2022-04-19T05:14:00,sdl,15.99
2022-04-19T05:15:00,sdl,15.96
2022-04-19T05:16:00,sdl,16.84
2022-04-19T05:17:00,sdl,15.86
2022-04-19T05:18:00,sdl,15.82
2022-04-19T05:19:00,sdl,15.87
2022-04-19T05:20:00,sdl,15.93
2022-04-19T05:21:00,sdl,14.02
2022-04-19T05:22:00,sdl,14.17
2022-04-19T05:23:00,sdl,14.17
2022-04-19T05:24:00,sdl,13.77
2022-04-19T05:25:00,sdl,13.65
2022-04-19T05:26:00,sdl,13.72
2022-04-19T05:27:00,sdl,13.60
2022-04-19T05:28:00,sdl,13.51
2022-04-19T05:29:00,sdl,13.60
2022-04-19T05:30:00,sdl,13.67
2022-04-19T05:31:00,sdl,13.74
2022-04-19T05:32:00,sdl,13.76
2022-04-19T05:33:00,sdl,13.63
2022-04-19T05:34:00,sdl,13.66
2022-04-19T05:35:00,sdl,13.69
2022-04-19T05:36:00,sdl,13.65
2022-04-19T05:37:00,sdl,13.75
2022-04-19T05:38:00,sdl,13.68
2022-04-19T05:39:00,sdl,14.72
2022-04-19T05:40:00,sdl,13.61
2022-04-19T05:41:00,sdl,13.58
2022-04-19T05:42:00,sdl,13.96
2022-04-19T05:43:00,sdl,13.98
2022-04-19T05:44:00,sdl,14.00
2022-04-19T05:45:00,sdl,14.11
2022-04-19T05:46:00,sdl,14.05
2022-04-19T05:47:00,sdl,14.06
2022-04-19T05:48:00,sdl,13.99
2022-04-19T05:49:00,sdl,14.01
2022-04-19T05:50:00,sdl,14.31
2022-04-19T05:51:00,sdl,14.27
2022-04-19T05:52:00,sdl,14.11
2022-04-19T05:53:00,sdl,14.06
2022-04-19T05:54:00,sdl,14.00
2022-04-19T05:55:00,sdl,14.05
2022-04-19T05:56:00,sdl,14.06
2022-04-19T05:57:00,sdl,14.00
2022-04-19T05:58:00,sdl,14.00
2022-04-19T05:59:00,sdl,14.04
2022-04-19T06:00:00,sdl,14.13
2022-04-19T06:01:00,sdl,14.20
2022-04-19T06:02:00,sdl,16.48
2022-04-19T06:03:00,sdl,14.88
2022-04-19T06:04:00,sdl,16.46
2022-04-19T06:05:00,sdl,16.51
2022-04-19T06:06:00,sdl,16.35
2022-04-19T06:07:00,sdl,16.41
2022-04-19T06:08:00,sdl,16.41
2022-04-19T06:09:00,sdl,16.42
2022-04-19T06:10:00,sdl,16.45
2022-04-19T06:11:00,sdl,16.47
2022-04-19T06:12:00,sdl,16.48
2022-04-19T06:13:00,sdl,16.38
2022-04-19T06:14:00,sdl,16.85
2022-04-19T06:15:00,sdl,17.03
2022-04-19T06:16:00,sdl,17.65
2022-04-19T06:17:00,sdl,16.41
2022-04-19T06:18:00,sdl,15.90
2022-04-19T06:19:00,sdl,13.87
2022-04-19T06:20:00,sdl,13.97
2022-04-19T06:21:00,sdl,13.80
2022-04-19T06:22:00,sdl,13.87
2022-04-19T06:23:00,sdl,13.39
2022-04-19T06:24:00,sdl,13.37
2022-04-19T06:25:00,sdl,13.37
2022-04-19T06:26:00,sdl,13.20
2022-04-19T06:27:00,sdl,13.32
2022-04-19T06:28:00,sdl,13.15
2022-04-19T06:29:00,sdl,13.12
2022-04-19T06:30:00,sdl,14.31
2022-04-19T06:31:00,sdl,13.17
2022-04-19T06:32:00,sdl,13.73
2022-04-19T06:33:00,sdl,13.30
2022-04-19T06:34:00,sdl,15.34
2022-04-19T06:35:00,sdl,15.41
2022-04-19T06:36:00,sdl,15.45
2022-04-19T06:37:00,sdl,15.41
2022-04-19T06:38:00,sdl,15.42
2022-04-19T06:39:00,sdl,15.38
2022-04-19T06:40:00,sdl,15.43
2022-04-19T06:41:00,sdl,15.99
2022-04-19T06:42:00,sdl,15.77
2022-04-19T06:43:00,sdl,15.44
2022-04-19T06:44:00,sdl,15.34
2022-04-19T06:45:00,sdl,13.15
2022-04-19T06:46:00,sdl,13.14
2022-04-19T06:47:00,sdl,13.31
2022-04-19T06:48:00,sdl,13.89
2022-04-19T06:49:00,sdl,13.24
2022-04-19T06:50:00,sdl,13.55
2022-04-19T06:51:00,sdl,13.86
2022-04-19T06:52:00,sdl,13.76
2022-04-19T06:53:00,sdl,13.45
2022-04-19T06:54:00,sdl,13.21
2022-04-19T06:55:00,sdl,13.34
2022-04-19T06:56:00,sdl,13.44
2022-04-19T06:57:00,sdl,13.41
2022-04-19T06:58:00,sdl,13.39
2022-04-19T06:59:00,sdl,13.48
2022-04-19T07:00:00,sdl,13.57
2022-04-19T07:01:00,sdl,13.60
2022-04-19T07:02:00,sdl,13.50
2022-04-19T07:03:00,sdl,13.52
2022-04-19T07:04:00,sdl,13.43
2022-04-19T07:05:00,sdl,13.50
2022-04-19T07:06:00,sdl,15.04
2022-04-19T07:07:00,sdl,13.92
2022-04-19T07:08:00,sdl,13.86
2022-04-19T07:09:00,sdl,13.98
2022-04-19T07:10:00,sdl,14.28
2022-04-19T07:11:00,sdl,14.28
2022-04-19T07:12:00,sdl,13.96
2022-04-19T07:13:00,sdl,14.02
2022-04-19T07:14:00,sdl,13.97
2022-04-19T07:15:00,sdl,13.98
2022-04-19T07:16:00,sdl,13.87
2022-04-19T07:17:00,sdl,16.04
2022-04-19T07:18:00,sdl,16.02
2022-04-19T07:19:00,sdl,16.01
2022-04-19T07:20:00,sdl,16.69
2022-04-19T07:21:00,sdl,15.90
2022-04-19T07:22:00,sdl,15.86
2022-04-19T07:23:00,sdl,15.83
2022-04-19T07:24:00,sdl,16.57
2022-04-19T07:25:00,sdl,15.66
2022-04-19T07:26:00,sdl,15.58
2022-04-19T07:27:00,sdl,15.80
2022-04-19T07:28:00,sdl,15.74
2022-04-19T07:29:00,sdl,15.66
2022-04-19T07:30:00,sdl,15.72
2022-04-19T07:31:00,sdl,15.71
2022-04-19T07:32:00,sdl,15.71
2022-04-19T07:33:00,sdl,15.73
2022-04-19T07:34:00,sdl,13.46
2022-04-19T07:35:00,sdl,13.52
2022-04-19T07:36:00,sdl,13.86
2022-04-19T07:37:00,sdl,13.99
2022-04-19T07:38:00,sdl,13.67
2022-04-19T07:39:00,sdl,14.00
2022-04-19T07:40:00,sdl,13.96
2022-04-19T07:41:00,sdl,13.90
2022-04-19T07:42:00,sdl,13.84
2022-04-19T07:43:00,sdl,13.88
2022-04-19T07:44:00,sdl,13.83
2022-04-19T07:45:00,sdl,13.86
2022-04-19T07:46:00,sdl,13.66
2022-04-19T07:47:00,sdl,13.74
2022-04-19T07:48:00,sdl,13.71
2022-04-19T07:49:00,sdl,13.74
2022-04-19T07:50:00,sdl,14.92
2022-04-19T07:51:00,sdl,13.80
2022-04-19T07:52:00,sdl,13.82
2022-04-19T07:53:00,sdl,13.80
2022-04-19T07:54:00,sdl,13.79
2022-04-19T07:55:00,sdl,13.71
2022-04-19T07:56:00,sdl,13.58
2022-04-19T07:57:00,sdl,13.56
2022-04-19T07:58:00,sdl,13.66
2022-04-19T07:59:00,sdl,13.74
2022-04-19T08:00:00,sdl,13.73
2022-04-19T08:01:00,sdl,14.10
2022-04-19T08:02:00,sdl,14.07
2022-04-19T08:03:00,sdl,13.78
2022-04-19T08:04:00,sdl,13.70
2022-04-19T08:05:00,sdl,13.75
2022-04-19T08:06:00,sdl,13.66
2022-04-19T08:07:00,sdl,13.61
2022-04-19T08:08:00,sdl,13.70
2022-04-19T08:09:00,sdl,13.73
2022-04-19T08:10:00,sdl,14.75
2022-04-19T08:11:00,sdl,13.74
2022-04-19T08:12:00,sdl,13.71
2022-04-19T08:13:00,sdl,13.85
2022-04-19T08:14:00,sdl,13.77
2022-04-19T08:15:00,sdl,13.82
2022-04-19T08:16:00,sdl,13.77
2022-04-19T08:17:00,sdl,13.80
2022-04-19T08:18:00,sdl,13.74
2022-04-19T08:19:00,sdl,15.82
2022-04-19T08:20:00,sdl,15.86
2022-04-19T08:21:00,sdl,15.83
2022-04-19T08:22:00,sdl,15.88
2022-04-19T08:23:00,sdl,15.85
2022-04-19T08:24:00,sdl,15.77
2022-04-19T08:25:00,sdl,15.76
2022-04-19T08:26:00,sdl,15.95
2022-04-19T08:27:00,sdl,15.98
2022-04-19T08:28:00,sdl,15.95
2022-04-19T08:29:00,sdl,15.98
2022-04-19T08:30:00,sdl,16.01
2022-04-19T08:31:00,sdl,15.59
2022-04-19T08:32:00,sdl,15.55
2022-04-19T08:33:00,sdl,13.22
2022-04-19T08:34:00,sdl,13.24
2022-04-19T08:35:00,sdl,13.28
2022-04-19T08:36:00,sdl,13.24
2022-04-19T08:37:00,sdl,13.27
2022-04-19T08:38:00,sdl,13.45
2022-04-19T08:39:00,sdl,13.56
2022-04-19T08:40:00,sdl,13.62
2022-04-19T08:41:00,sdl,13.63
2022-04-19T08:42:00,sdl,13.62
2022-04-19T08:43:00,sdl,13.56
2022-04-19T08:44:00,sdl,13.52
2022-04-19T08:45:00,sdl,13.67
2022-04-19T08:46:00,sdl,13.66
2022-04-19T08:47:00,sdl,15.85
2022-04-19T08:48:00,sdl,15.95
2022-04-19T08:49:00,sdl,16.49
2022-04-19T08:50:00,sdl,15.96
2022-04-19T08:51:00,sdl,15.94
2022-04-19T08:52:00,sdl,15.85
2022-04-19T08:53:00,sdl,15.88
2022-04-19T08:54:00,sdl,15.81
2022-04-19T08:55:00,sdl,15.95
2022-04-19T08:56:00,sdl,15.94
2022-04-19T08:57:00,sdl,13.99
2022-04-19T08:58:00,sdl,15.48
2022-04-19T08:59:00,sdl,15.88
2022-04-19T09:00:00,sdl,14.21
2022-04-19T09:01:00,sdl,14.23
2022-04-19T09:02:00,sdl,14.51
2022-04-19T09:03:00,sdl,14.61
2022-04-19T09:04:00,sdl,16.45
2022-04-19T09:05:00,sdl,16.41
2022-04-19T09:06:00,sdl,14.74
2022-04-19T09:07:00,sdl,14.65
2022-04-19T09:08:00,sdl,14.67
2022-04-19T09:09:00,sdl,14.76
2022-04-19T09:10:00,sdl,15.40
2022-04-19T09:11:00,sdl,14.70
2022-04-19T09:12:00,sdl,14.75
2022-04-19T09:13:00,sdl,15.22
2022-04-19T09:14:00,sdl,15.13
2022-04-19T09:15:00,sdl,15.26
2022-04-19T09:16:00,sdl,15.30
2022-04-19T09:17:00,sdl,15.30
2022-04-19T09:18:00,sdl,15.35
2022-04-19T09:19:00,sdl,15.47
2022-04-19T09:20:00,sdl,15.32
2022-04-19T09:21:00,sdl,15.05
2022-04-19T09:22:00,sdl,15.25
2022-04-19T09:23:00,sdl,15.18
2022-04-19T09:24:00,sdl,15.43
2022-04-19T09:25:00,sdl,16.39
2022-04-19T09:26:00,sdl,16.75
2022-04-19T09:27:00,sdl,16.89
2022-04-19T09:28:00,sdl,17.62
2022-04-19T09:29:00,sdl,16.42
2022-04-19T09:30:00,sdl,16.50
2022-04-19T09:31:00,sdl,16.56
2022-04-19T09:32:00,sdl,18.67
2022-04-19T09:33:00,sdl,18.58
2022-04-19T09:34:00,sdl,20.09
2022-04-19T09:35:00,sdl,20.09
2022-04-19T09:36:00,sdl,19.87
2022-04-19T09:37:00,sdl,19.77
2022-04-19T09:38:00,sdl,19.76
2022-04-19T09:39:00,sdl,19.80
2022-04-19T09:40:00,sdl,18.51
2022-04-19T09:41:00,sdl,18.78
2022-04-19T09:42:00,sdl,18.51
2022-04-19T09:43:00,sdl,18.57
2022-04-19T09:44:00,sdl,18.59
2022-04-19T09:45:00,sdl,18.53
2022-04-19T09:46:00,sdl,18.51
2022-04-19T09:47:00,sdl,18.47
2022-04-19T09:48:00,sdl,18.43
2022-04-19T09:49:00,sdl,16.18
2022-04-19T09:50:00,sdl,16.84
2022-04-19T09:51:00,sdl,16.13
2022-04-19T09:52:00,sdl,16.22
2022-04-19T09:53:00,sdl,16.25
2022-04-19T09:54:00,sdl,16.37
2022-04-19T09:55:00,sdl,16.18
2022-04-19T09:56:00,sdl,16.32
2022-04-19T09:57:00,sdl,16.61
2022-04-19T09:58:00,sdl,16.58
2022-04-19T09:59:00,sdl,16.32
2022-04-19T10:00:00,sdl,15.92
2022-04-19T10:01:00,sdl,15.87
2022-04-19T10:02:00,sdl,15.99
2022-04-19T10:03:00,sdl,16.13
2022-04-19T10:04:00,sdl,16.10
2022-04-19T10:05:00,sdl,16.14
2022-04-19T10:06:00,sdl,16.01
2022-04-19T10:07:00,sdl,16.03
2022-04-19T10:08:00,sdl,16.03
2022-04-19T10:09:00,sdl,17.15
2022-04-19T10:10:00,sdl,16.03
2022-04-19T10:11:00,sdl,16.00
2022-04-19T10:12:00,sdl,16.09
2022-04-19T10:13:00,sdl,16.21
2022-04-19T10:14:00,sdl,17.55
2022-04-19T10:15:00,sdl,16.52
2022-04-19T10:16:00,sdl,16.59
2022-04-19T10:17:00,sdl,16.53
2022-04-19T10:18:00,sdl,16.44
2022-04-19T10:19:00,sdl,16.39
2022-04-19T10:20:00,sdl,20.14
2022-04-19T10:21:00,sdl,18.78
2022-04-19T10:22:00,sdl,18.59
2022-04-19T10:23:00,sdl,18.53
2022-04-19T10:24:00,sdl,18.61
2022-04-19T10:25:00,sdl,18.54
2022-04-19T10:26:00,sdl,19.35
2022-04-19T10:27:00,sdl,18.98
2022-04-19T10:28:00,sdl,18.59
2022-04-19T10:29:00,sdl,16.34
2022-04-19T10:30:00,sdl,16.30
2022-04-19T10:31:00,sdl,16.97
2022-04-19T10:32:00,sdl,17.03
2022-04-19T10:33:00,sdl,16.67
2022-04-19T10:34:00,sdl,16.72
2022-04-19T10:35:00,sdl,16.58
2022-04-19T10:36:00,sdl,16.66
2022-04-19T10:37:00,sdl,16.78
2022-04-19T10:38:00,sdl,17.25
2022-04-19T10:39:00,sdl,16.57
2022-04-19T10:40:00,sdl,17.16
2022-04-19T10:41:00,sdl,16.46
2022-04-19T10:42:00,sdl,17.30
2022-04-19T10:43:00,sdl,17.33
2022-04-19T10:44:00,sdl,17.47
2022-04-19T10:45:00,sdl,17.45
2022-04-19T10:46:00,sdl,19.62
2022-04-19T10:47:00,sdl,19.74
2022-04-19T10:48:00,sdl,20.39
2022-04-19T10:49:00,sdl,21.79
2022-04-19T10:50:00,sdl,22.85
2022-04-19T10:51:00,sdl,21.77
2022-04-19T10:52:00,sdl,21.83
2022-04-19T10:53:00,sdl,22.56
2022-04-19T10:54:00,sdl,22.41
2022-04-19T10:55:00,sdl,22.35
2022-04-19T10:56:00,sdl,21.98
2022-04-19T10:57:00,sdl,21.94
2022-04-19T10:58:00,sdl,21.92
2022-04-19T10:59:00,sdl,21.89
2022-04-19T11:00:00,sdl,22.63
2022-04-19T11:01:00,sdl,22.96
2022-04-19T11:02:00,sdl,21.89
2022-04-19T11:03:00,sdl,21.78
2022-04-19T11:04:00,sdl,22.31
2022-04-19T11:05:00,sdl,20.21
2022-04-19T11:06:00,sdl,21.56
2022-04-19T11:07:00,sdl,20.89
2022-04-19T11:08:00,sdl,20.23
2022-04-19T11:09:00,sdl,20.23
2022-04-19T11:10:00,sdl,20.20
2022-04-19T11:11:00,sdl,20.13
2022-04-19T11:12:00,sdl,20.54
2022-04-19T11:13:00,sdl,20.18
2022-04-19T11:14:00,sdl,20.12
2022-04-19T11:15:00,sdl,20.05
2022-04-19T11:16:00,sdl,20.15
2022-04-19T11:17:00,sdl,20.12
2022-04-19T11:18:00,sdl,20.13
2022-04-19T11:19:00,sdl,20.14
2022-04-19T11:20:00,sdl,20.19
2022-04-19T11:21:00,sdl,19.70
2022-04-19T11:22:00,sdl,19.66
2022-04-19T11:23:00,sdl,20.02
2022-04-19T11:24:00,sdl,19.81
2022-04-19T11:25:00,sdl,19.50
2022-04-19T11:26:00,sdl,19.49
2022-04-19T11:27:00,sdl,18.19
2022-04-19T11:28:00,sdl,18.16
2022-04-19T11:29:00,sdl,18.09
2022-04-19T11:30:00,sdl,19.11
2022-04-19T11:31:00,sdl,17.91
2022-04-19T11:32:00,sdl,17.77
2022-04-19T11:33:00,sdl,17.79
2022-04-19T11:34:00,sdl,17.80
2022-04-19T11:35:00,sdl,18.46
2022-04-19T11:36:00,sdl,17.73
2022-04-19T11:37:00,sdl,18.03
2022-04-19T11:38:00,sdl,18.66
2022-04-19T11:39:00,sdl,17.96
2022-04-19T11:40:00,sdl,17.89
2022-04-19T11:41:00,sdl,20.29
2022-04-19T11:42:00,sdl,21.21
2022-04-19T11:43:00,sdl,20.21
2022-04-19T11:44:00,sdl,20.09
2022-04-19T11:45:00,sdl,20.14
2022-04-19T11:46:00,sdl,20.06
2022-04-19T11:47:00,sdl,20.05
2022-04-19T11:48:00,sdl,20.00
2022-04-19T11:49:00,sdl,19.93
2022-04-19T11:50:00,sdl,20.43
2022-04-19T11:51:00,sdl,18.53
2022-04-19T11:52:00,sdl,18.54
2022-04-19T11:53:00,sdl,18.08
2022-04-19T11:54:00,sdl,18.44
2022-04-19T11:55:00,sdl,18.43
2022-04-19T11:56:00,sdl,18.83
2022-04-19T11:57:00,sdl,18.41
2022-04-19T11:58:00,sdl,18.32
2022-04-19T11:59:00,sdl,18.28
2022-04-19T12:00:00,sdl,18.26
2022-04-19T12:01:00,sdl,18.21
2022-04-19T12:02:00,sdl,18.18
2022-04-19T12:03:00,sdl,18.16
2022-04-19T12:04:00,sdl,18.19
2022-04-19T12:05:00,sdl,20.46
2022-04-19T12:06:00,sdl,20.47
2022-04-19T12:07:00,sdl,20.58
2022-04-19T12:08:00,sdl,20.51
2022-04-19T12:09:00,sdl,20.55
2022-04-19T12:10:00,sdl,20.67
2022-04-19T12:11:00,sdl,22.07
2022-04-19T12:12:00,sdl,19.69
2022-04-19T12:13:00,sdl,21.48
2022-04-19T12:14:00,sdl,20.78
2022-04-19T12:15:00,sdl,19.74
2022-04-19T12:16:00,sdl,19.77
2022-04-19T12:17:00,sdl,20.62
2022-04-19T12:18:00,sdl,20.12
2022-04-19T12:19:00,sdl,18.52
2022-04-19T12:20:00,sdl,18.87
2022-04-19T12:21:00,sdl,16.61
2022-04-19T12:22:00,sdl,16.71
2022-04-19T12:23:00,sdl,16.18
2022-04-19T12:24:00,sdl,16.40
2022-04-19T12:25:00,sdl,16.29
2022-04-19T12:26:00,sdl,16.39
2022-04-19T12:27:00,sdl,16.80
2022-04-19T12:28:00,sdl,16.42
2022-04-19T12:29:00,sdl,16.46
2022-04-19T12:30:00,sdl,16.70
2022-04-19T12:31:00,sdl,16.37
2022-04-19T12:32:00,sdl,16.29
2022-04-19T12:33:00,sdl,16.29
2022-04-19T12:34:00,sdl,16.28
2022-04-19T12:35:00,sdl,16.63
2022-04-19T12:36:00,sdl,16.18
2022-04-19T12:37:00,sdl,16.08
2022-04-19T12:38:00,sdl,16.14
2022-04-19T12:39:00,sdl,16.13
2022-04-19T12:40:00,sdl,16.17
2022-04-19T12:41:00,sdl,16.61
2022-04-19T12:42:00,sdl,17.19
2022-04-19T12:43:00,sdl,16.91
2022-04-19T12:44:00,sdl,16.18
2022-04-19T12:45:00,sdl,16.12
2022-04-19T12:46:00,sdl,16.20
2022-04-19T12:47:00,sdl,16.18
2022-04-19T12:48:00,sdl,16.56
2022-04-19T12:49:00,sdl,19.12
2022-04-19T12:50:00,sdl,18.39
2022-04-19T12:51:00,sdl,18.26
2022-04-19T12:52:00,sdl,18.35
2022-04-19T12:53:00,sdl,18.31
2022-04-19T12:54:00,sdl,18.36
2022-04-19T12:55:00,sdl,18.37
2022-04-19T12:56:00,sdl,19.07
2022-04-19T12:57:00,sdl,20.21
2022-04-19T12:58:00,sdl,17.98
2022-04-19T12:59:00,sdl,17.95
2022-04-19T13:00:00,sdl,19.11
2022-04-19T13:01:00,sdl,18.03
2022-04-19T13:02:00,sdl,17.89
2022-04-19T13:03:00,sdl,17.98
2022-04-19T13:04:00,sdl,16.39
2022-04-19T13:05:00,sdl,15.78
2022-04-19T13:06:00,sdl,15.87
2022-04-19T13:07:00,sdl,15.81
2022-04-19T13:08:00,sdl,15.91
2022-04-19T13:09:00,sdl,16.18
2022-04-19T13:10:00,sdl,15.93
2022-04-19T13:11:00,sdl,16.01
2022-04-19T13:12:00,sdl,15.91
2022-04-19T13:13:00,sdl,16.66
2022-04-19T13:14:00,sdl,16.08
2022-04-19T13:15:00,sdl,16.08
2022-04-19T13:16:00,sdl,16.07
2022-04-19T13:17:00,sdl,18.71
2022-04-19T13:18:00,sdl,18.72
2022-04-19T13:19:00,sdl,18.36
2022-04-19T13:20:00,sdl,19.09